Other Public Products
Issued by NWS Grand Forks, ND

Home | Current Version | Previous Version | Graphics & Text | Print | Product List | Glossary On
Versions: 1 2 3 4 5 6 7 8 9 10 11 12 13 14 15 16 17 18 19 20 21 22 23 24 25 26 27 28 29 30 31 32 33 34 35 36 37 38 39 40 41 42 43 44 45 46 47 48 49 50
000
FPUS83 KFGF 240510
OPUFGF
PRAIRIE TO PINES WEATHER ROUNDUP
NATIONAL WEATHER SERVICE EASTERN NORTH DAKOTA/GRAND FORKS ND
1100 PM CST THU FEB 23 2017

 **SATELLITE DATA USED TO AUGMENT SKY COVER AT AUTOMATED STATIONS**
 *****  WEATHER ACROSS EASTERN NORTH DAKOTA  *****

CITY           SKY/WX    TMP DP  RH WIND       PRES   REMARKS
GRAND FORKS    FAIR      20  11  68 N10       30.13R WCI   9
GRAND FORKS AF FAIR      18  15  87 N8        30.13S WCI   7
GRAND CITY NWS NOT AVBL
BUXTON         NOT AVBL
DEVILS LAKE    FAIR      16  12  84 N8        30.11F WCI   5
FARGO          CLOUDY    23  15  71 N16       30.10R WCI  10
WAHPETON ARPT    N/A     23  14  68 N17G26    30.07R WCI   9
$$

 *****  WEATHER ACROSS CENTRAL AND WESTERN NORTH DAKOTA  *****

CITY           SKY/WX    TMP DP  RH WIND       PRES   REMARKS
JAMESTOWN      MOCLDY    22  16  78 N13       30.09R WCI  10
BISMARCK       MOCLDY    19  14  81 N9        30.13R WCI   8
MINOT          MOCLDY    20  15  81 SW7       30.13S WCI  11
MINOT AFB      CLOUDY    19  15  84 W7        30.13S WCI  10
GARRISON         N/A     12   8  84 N6        30.12S WCI   3
WILLISTON      FAIR      12   9  87 CALM      30.16S
DICKINSON      FAIR      12   8  84 N5        30.08R WCI   4
HETTINGER      FAIR      19  14  81 N13       30.08R WCI   6
$$

 *****  OTHER OBSERVATIONS NORTHEAST NORTH DAKOTA  *****

CITY           SKY/WX    TMP DP  RH WIND       PRES   REMARKS
WALHALLA       NOT AVBL
LANGDON        NOT AVBL
CAVALIER         N/A     14  10  85 NW3       30.15S
GRAFTON        FAIR      18  16  93 N8        30.16S WCI   7
CANDO          NOT AVBL
FORT TOTTEN      N/A     17  16  95 N2        29.95S
ROLLA          CLOUDY    19  16  86 W7        30.10S WCI  10
RUGBY            N/A      9   9 100 CALM      30.12F
 ***** THE ABOVE OBSERVATIONS ARE NON NWS ARE NOT QUALITY
        CONTROLLED AND MAY MIS-REPORT RAIN FOR SNOW...
$$

 *****  OTHER OBSERVATIONS SOUTHEAST NORTH DAKOTA *****

CITY           SKY/WX    TMP DP  RH WIND       PRES   REMARKS
COOPERSTOWN    FAIR      19  18  93 N12       30.10R WCI   7
VALLEY CITY    MOCLDY    19  19 100 NE12      30.11R WCI   7
OAKES          NOT AVBL
GWINNER        FAIR      23  18  80 N17       30.09R WCI   9
SHEYENNE NWR     N/A     21  12  69 NE14      29.95S WCI   8
BUFFALO        NOT AVBL
WYNDMERE       NOT AVBL
 ***** THE ABOVE OBSERVATIONS ARE NON NWS ARE NOT QUALITY
       CONTROLLED AND MAY MIS-REPORT RAIN FOR SNOW...
$$

  *****  WEATHER ACROSS NORTHERN MINNESOTA  *****

CITY           SKY/WX    TMP DP  RH WIND       PRES   REMARKS
FLAG ISLAND    FAIR      12   5  73 N12       30.09S WCI  -2
WARROAD        FAIR      12   5  73 N9        30.10S WCI   0
ROSEAU         FAIR      10   3  72 N7        30.11R WCI   0
HALLOCK        FAIR      16  10  79 N6        30.13S WCI   7
THF RVR FALLS  FAIR      16  10  77 N10       30.11R WCI   4
HALSTAD          N/A     21  14  74 NE14        N/A  WCI   8
FOSSTON        FAIR      16  10  79 N18       30.08R WCI  -1
BAUDETTE       FAIR      12   4  70 N12       30.05F WCI  -2
WASKISH        FAIR      14   9  79 N6        30.06R WCI   5
CROOKSTON      FAIR      19  12  73 NE9       30.14R WCI   9
$$
  *****  WEATHER ACROSS CENTRAL AND WEST MINNESOTA  *****

CITY           SKY/WX    TMP DP  RH WIND       PRES   REMARKS
BEMIDJI        FAIR      15   9  75 N8        30.05R WCI   4
PARK RAPIDS    CLOUDY    20   9  62 NE13      30.02R WCI   7
WADENA         FAIR      19  16  86 N10G17    30.01R WCI   8
DETROIT LAKES  FAIR      21  14  73 N10       30.06R WCI  10
MOORHEAD       CLOUDY    21  16  79 NE17G23   30.10R WCI   7
FERGUS FALLS   MOCLDY    21  16  79 N16       30.07S WCI   7
ELBOW LAKE     FAIR      24  19  81 N14       30.01R WCI  11
MORRIS MN      FAIR      27  21  80 N16       29.98F WCI  14
STAPLES        FAIR      21  16  79 N9G16     30.01R WCI  11
WHEATON        FAIR      25  19  80 N14G21    30.05R WCI  13
$$
  *****  WEATHER ELSEWHERE ACROSS MINNESOTA  *****

CITY           SKY/WX    TMP DP  RH WIND       PRES   REMARKS
DULUTH         FAIR      21  15  78 N9        29.96R WCI  11
INTRNTL FALLS  FAIR      14   6  70 N8        30.02F WCI   3
ELY            FAIR      18   9  68 CALM      29.97R
CLOQUET        FAIR      21  16  79 N8        29.98R WCI  12
BRAINERD       FAIR      22  15  75 N13       30.01R WCI  10
HIBBING        FAIR      17  11  77 N8        29.99R WCI   7
ALEXANDRIA     FAIR      25  18  74 NE17G23   29.98R WCI  12
SAINT CLOUD    MOCLDY    27  19  72 N10       29.97R WCI  17
MINNEAPOLIS    CLOUDY    30  22  72 NE15      29.91F WCI  19
$$

  *****  WEATHER ACROSS SOUTH DAKOTA  *****

CITY           SKY/WX    TMP DP  RH WIND       PRES   REMARKS
SIOUX FALLS    LGT SNOW  28  26  92 N21G30    29.83F VSB 1   WCI  15
BROOKINGS      CLOUDY    26  22  84 N20G29    29.86S WCI  12
WATERTOWN      CLOUDY    22  18  85 N25G32    29.93S WCI   5
HURON          CLOUDY    27  21  78 N17G25    29.94F WCI  14
SISSETON         N/A     24  19  81 NE21      30.03S WCI   9
ABERDEEN       MOCLDY    23  15  71 N24       30.04S WCI   7
MITCHELL       CLOUDY    29  24  82 N20G26    29.91S WCI  16
PIERRE         CLOUDY    28  21  75 N16       29.99S WCI  16
MOBRIDGE       CLOUDY    28  19  69 N14       30.04R WCI  17
RAPID CITY     FLURRIES  25  21  85 NE14      29.98S WCI  13
$$

  *****  SOME WEATHER IN NEARBY STATES *****

CITY           SKY/WX    TMP DP  RH WIND       PRES   REMARKS
GLASGOW MT     CLOUDY    25  19  78 SE8       30.11S WCI  16
GREAT FALLS MT CLOUDY    24  22  91 NE8       29.96F WCI  15
CHEYENNE WY    FLURRIES  15  10  80 N12       29.80R WCI   2
SCOTTSBLUFF NE CLOUDY    24  18  77 N13       29.90R WCI  12
OMAHA NE       LGT SNOW  33  29  85 N15       29.63R FOG     WCI  23
DES MOINES IA  LGT RAIN  42  39  89 NE20G30   29.51F FOG
DAVENPORT IA   MIX PCPN  37  35  92 E18G33    29.57F
CHICAGO IL     CLOUDY    40  37  89 NE16      29.67F
EAU CLAIRE WI  CLOUDY    33  25  72 NE12G21   29.86F WCI  24
LA CROSSE WI   LGT RAIN  37  33  85 NE12      29.76F
$$

  *****  SOME NATIONAL WEATHER *****

CITY           SKY/WX    TMP DP  RH WIND       PRES   REMARKS
LA GUARDIA NY  FAIR      55  47  74 S8        29.90R
RALEIGH NC     FAIR      59  51  75 SE5       29.93S
ATLANTA GA     FAIR      63  52  67 SE3       29.88S
NEW ORLEANS LA FAIR      66  63  90 S9        29.80S
OKLAHOMA CITY  FAIR      55  41  59 NW28G38   29.52R
ALBUQUERQUE NM FAIR      39  10  30 NW12      29.80R
SALT LAKE CITY CLOUDY    29  25  85 NW9       29.90R WCI  20
LOS ANGELES CA FAIR      52  18  26 N12       30.09R
BOISE ID       CLOUDY    30  23  75 NW22      29.97R WCI  17
SEATTLE WA     FAIR      34  32  92 S6        30.19S
$$

*** WEATHER ACROSS MANITOBA...SASKATCHEWAN AND ONTARIO ***
                ***ONTARIO***

CITY           SKY/WX    TMP DP  RH WIND       PRES   REMARKS
GERALDTON      FLURRIES   5  -2  72 N8        30.03R WCI  -8
THUNDER BAY    CLEAR     19   9  63 NE7       30.01F WCI  10
SIOUX LOOKOUT  CLEAR      7  -2  66 NE3       30.05R
TORONTO        MOCLDY    41  36  81 N7        29.88S
BIG TROUT LK   CLEAR     -2  -8  78 N7        30.15R WCI -16
PICKLE LAKE    NOT AVBL
DRYDEN         CLEAR      9   3  78 N5        30.04S WCI   0
KENORA         CLEAR     10   1  67 N8        30.06S WCI  -1
$$
                *** MANITOBA***

CITY           SKY/WX    TMP DP  RH WIND       PRES   REMARKS
BRANDON        PTCLDY    19  14  79 W7        30.11S WCI  10
DAUPHIN        FLURRIES  18  14  86 NE10      30.16S WCI   6
ISLAND LAKE    CRYSTALS  -8 -11  84 N2        30.22R
PILOT MOUND      N/A     18  14  86 W2          N/A
THE PAS        CLEAR      3  -4  72 E3        30.20S
THOMPSON       MOCLDY    -8 -13  77 NE5       30.25S WCI -19
WINNIPEG       PTCLDY    12   7  79 E6        30.16S WCI   3
LYNN LAKE      MOCLDY   -17 -20  83 NE5       30.20S WCI -29
CHURCHILL      MOCLDY   -11 -17  77 W6        30.38R WCI -25
GILLAM         CLEAR     -9 -15  77 NE6       30.31S WCI -23
$$
                ***SASKATCHEWAN***

CITY           SKY/WX    TMP DP  RH WIND       PRES   REMARKS
ESTEVAN        MOCLDY    25  19  80 W7        30.13R WCI  17
KINDERSLEY     FLURRIES  23  19  86 SW6       30.06S WCI  16
LLOYDMINSTER   MOCLDY    16  12  86 S8        30.05S WCI   5
PRINCE ALBERT  FLURRIES  10   5  79 E2        30.12S
REGINA         CLOUDY    27  18  69 W2        30.11F
YORKTON        CLOUDY    16  10  79 NW7       30.13S W



USA.gov is the U.S. government's official web portal to all federal, state and local government web resources and services.